TimeCDT,TemperatureF,Dew PointF,Humidity,Sea Level PressureIn,VisibilityMPH,Wind Direction,Wind SpeedMPH,Gust SpeedMPH,PrecipitationIn,Events,Conditions,WindDirDegrees,DateUTC
12:53 AM,48.9,37.0,64,30.18,10.0,North,4.6,-,N/A,,Overcast,360,2012-10-08 05:53:00
1:53 AM,48.9,37.0,64,30.19,10.0,NNE,5.8,-,N/A,,Overcast,20,2012-10-08 06:53:00
2:53 AM,48.9,37.0,64,30.17,10.0,NNE,6.9,-,N/A,,Overcast,20,2012-10-08 07:53:00
3:53 AM,48.0,37.0,66,30.19,10.0,NNW,3.5,-,N/A,,Overcast,340,2012-10-08 08:53:00
4:53 AM,46.9,39.0,74,30.19,10.0,East,3.5,-,0.01,,Overcast,90,2012-10-08 09:53:00
5:53 AM,46.0,43.0,89,30.22,10.0,Calm,Calm,-,0.00,Rain,Light Rain,0,2012-10-08 10:53:00
6:53 AM,46.0,42.1,86,30.22,10.0,NNW,5.8,-,0.03,Rain,Light Rain,340,2012-10-08 11:53:00
7:53 AM,46.9,42.1,83,30.23,10.0,Calm,Calm,-,0.00,,Overcast,0,2012-10-08 12:53:00
8:53 AM,48.0,41.0,77,30.24,10.0,Calm,Calm,-,N/A,,Overcast,0,2012-10-08 13:53:00
9:53 AM,50.0,43.0,77,30.23,10.0,Calm,Calm,-,N/A,,Mostly Cloudy,0,2012-10-08 14:53:00
10:53 AM,53.1,42.1,66,30.23,10.0,Calm,Calm,-,N/A,,Mostly Cloudy,0,2012-10-08 15:53:00
11:53 AM,57.9,43.0,58,30.22,10.0,NW,4.6,-,N/A,,Overcast,320,2012-10-08 16:53:00
12:53 PM,57.9,39.9,51,30.20,10.0,NW,4.6,-,N/A,,Mostly Cloudy,320,2012-10-08 17:53:00
1:53 PM,57.9,37.0,46,30.17,10.0,NNW,4.6,-,N/A,,Mostly Cloudy,330,2012-10-08 18:53:00
2:53 PM,59.0,37.0,44,30.15,10.0,Calm,Calm,-,N/A,,Scattered Clouds,0,2012-10-08 19:53:00
3:53 PM,61.0,35.1,38,30.14,10.0,Calm,Calm,-,N/A,,Partly Cloudy,0,2012-10-08 20:53:00
4:53 PM,61.0,35.1,38,30.14,10.0,Variable,3.5,-,N/A,,Partly Cloudy,0,2012-10-08 21:53:00
5:53 PM,57.9,35.1,42,30.14,10.0,Calm,Calm,-,N/A,,Partly Cloudy,0,2012-10-08 22:53:00
6:53 PM,52.0,37.9,59,30.14,10.0,Calm,Calm,-,N/A,,Partly Cloudy,0,2012-10-08 23:53:00
7:53 PM,50.0,41.0,71,30.15,10.0,Calm,Calm,-,N/A,,Clear,0,2012-10-09 00:53:00
8:53 PM,48.0,42.1,80,30.16,10.0,South,4.6,-,N/A,,Clear,180,2012-10-09 01:53:00
9:53 PM,45.0,42.1,90,30.17,10.0,South,4.6,-,N/A,,Clear,180,2012-10-09 02:53:00
10:53 PM,44.1,41.0,89,30.17,10.0,South,3.5,-,N/A,,Clear,180,2012-10-09 03:53:00
11:53 PM,43.0,41.0,93,30.17,10.0,South,3.5,-,N/A,,Clear,180,2012-10-09 04:53:00